EHI
8 9 7 4 1 0 0 0 0 0 0 0 0 0 0 0 0 0 0 0 0 0 0 0 0 0 0 1 2 3 3 3 3 2 3 3 1 0 1 0 0 0 0
7 7 6 3 1 0 0 0 0 0 0 0 0 0 0 0 0 0 0 0 0 0 0 0 1 0 0 0 1 2 3 2 2 2 3 3 1 1 1 0 0 0 1
6 5 4 2 0 0 0 0 0 0 0 0 0 0 0 0 0 0 0 0 0 0 0 1 2 1 0 0 0 2 3 2 1 1 2 2 1 1 1 1 0 0 1
4 3 2 1 0 0 0 0 0 0 0 0 0 0 0 0 0 0 0 1 1 1 1 2 3 1 0 0 1 2 3 2 1 1 0 0 0 0 0 1 1 1 1
4 3 2 1 0 0 0 0 0 0 0 0 0 0 0 0 0 0 0 1 2 3 3 3 2 1 0 0 1 3 3 2 1 1 0 0 0 0 0 1 2 2 2
4 4 3 1 1 0 0 0 0 0 0 0 0 0 0 0 0 1 0 1 2 3 3 2 2 1 0 1 2 2 2 1 1 1 0 0 0 1 2 2 2 3 2
4 3 3 3 3 1 0 0 0 0 0 0 0 0 0 0 0 0 0 0 1 2 1 1 1 0 0 1 1 1 1 0 0 0 0 0 1 3 4 4 3 2 2
4 3 2 3 4 3 1 0 0 0 0 0 0 0 0 0 0 0 0 0 0 0 0 0 0 0 0 0 0 0 0 0 0 0 0 1 2 4 5 5 3 2 2
2 3 2 2 3 2 1 0 0 0 0 0 0 0 0 0 0 0 0 0 0 0 0 0 0 0 0 0 0 0 0 0 0 0 0 1 2 2 3 4 3 1 1
1 2 1 0 1 1 1 0 0 0 0 0 0 0 0 0 0 0 0 0 0 0 0 0 0 0 0 0 0 0 0 0 0 0 0 0 0 0 1 3 3 1 1
0 1 2 1 1 1 0 0 0 0 0 0 0 0 0 0 0 0 0 0 0 0 0 0 0 0 0 0 0 0 0 0 0 0 0 0 0 0 1 2 3 2 2
1 1 3 3 1 1 0 0 0 0 0 0 0 0 0 0 0 0 0 0 0 0 0 0 0 0 0 0 0 0 0 0 0 0 0 0 0 0 1 2 3 3 3
2 2 4 5 3 1 1 1 0 0 0 0 0 0 0 0 0 0 0 0 0 0 0 0 0 0 0 0 0 0 0 0 0 0 0 0 0 0 0 2 3 3 3
4 4 5 6 5 3 2 2 1 0 0 0 0 0 0 0 0 0 0 0 0 0 0 0 0 0 0 0 0 0 0 0 0 0 0 0 0 0 1 2 3 3 2
6 5 5 6 6 5 4 2 1 0 0 0 0 0 0 0 0 0 0 0 0 0 0 0 0 0 0 0 0 0 0 0 0 0 0 0 0 0 1 2 2 1 1
6 6 5 5 6 5 4 2 1 0 0 0 0 0 0 0 0 0 0 0 0 0 0 0 0 0 0 0 0 0 0 0 0 0 0 0 0 0 1 1 1 1 1
5 5 4 4 5 4 3 3 1 1 0 0 0 0 0 0 0 0 0 0 0 0 0 0 0 0 0 0 0 0 0 0 0 0 0 0 0 0 0 0 1 2 2
4 4 4 4 4 3 3 3 3 2 1 0 0 0 0 0 0 0 0 0 0 0 0 0 0 0 0 0 0 0 0 0 0 0 0 0 0 0 0 0 1 2 2
5 4 3 3 3 3 3 3 3 3 2 1 0 0 0 0 0 0 0 0 0 0 0 0 0 0 0 0 0 0 0 0 0 0 0 0 0 0 0 0 0 1 1
5 4 3 3 3 3 3 3 3 4 3 2 1 0 0 0 0 0 0 0 0 0 0 0 0 0 0 0 0 0 0 0 0 0 0 0 0 0 0 0 0 0 0
6 5 4 4 4 3 3 3 4 4 4 3 2 1 0 0 0 0 1 1 0 0 0 0 0 0 0 0 0 0 0 0 0 0 0 0 0 0 0 0 0 0 0
6 6 5 4 4 4 4 4 4 4 4 3 3 2 1 0 0 0 1 1 0 0 0 0 0 0 0 0 0 0 0 0 0 0 0 0 0 0 0 0 0 0 0
6 7 7 5 4 4 5 5 5 5 4 4 4 3 2 0 0 0 1 1 0 0 0 0 0 0 0 0 0 0 0 0 0 0 0 0 0 0 0 0 0 0 0
8 9 9 7 5 5 7 8 7 6 5 5 4 3 1 0 1 1 2 1 1 1 0 0 0 0 0 0 0 0 0 0 0 0 0 0 0 0 0 0 0 0 0
11 11 11 9 8 8 9 10 9 7 5 4 4 3 2 1 2 3 3 3 2 1 0 0 0 0 0 0 0 0 0 0 0 0 0 0 0 0 0 0 0 0 0
11 11 11 10 10 10 10 10 9 6 4 3 3 4 4 3 3 3 3 3 3 1 0 0 0 0 0 0 0 0 0 0 0 0 0 0 0 0 0 0 0 0 0
Wind_Speed
5 7 8 9 9 8 8 7 7 7 7 8 7 7 7 7 7 7 6 6 7 7 7 7 6 5 5 5 5 5 4 4 4 5 5 6 6 5 5 5 4 4 7
6 8 9 9 9 9 9 8 8 8 8 8 8 8 8 8 8 7 7 6 6 7 7 7 6 6 6 6 6 6 6 5 5 4 4 5 6 5 5 5 5 4 6
6 8 8 9 9 8 8 8 8 8 9 8 8 8 8 8 8 7 6 6 7 8 7 7 7 7 7 7 6 6 6 5 4 3 2 2 4 6 7 7 7 7 7
7 8 8 9 9 8 8 8 9 9 8 8 9 8 8 8 8 7 6 7 7 7 7 7 7 8 8 7 6 6 6 5 4 3 2 3 4 7 7 7 7 7 7
8 9 9 9 9 9 8 8 9 9 8 9 8 8 8 8 8 8 7 7 7 7 7 7 7 8 8 7 6 6 5 5 4 3 3 4 4 6 7 7 7 7 7
8 9 9 9 9 9 8 9 9 9 9 9 8 8 9 8 8 8 8 8 8 8 8 7 7 8 7 7 6 5 5 5 4 3 4 3 3 7 7 7 7 7 6
8 8 9 9 9 9 9 9 9 9 10 9 9 9 9 9 9 9 9 9 9 9 8 8 8 7 6 6 5 5 4 4 3 3 3 4 5 8 8 7 6 6 6
7 9 9 9 9 9 10 10 9 10 9 9 8 9 9 9 9 10 10 9 9 9 8 8 8 7 7 6 5 5 5 4 4 4 4 4 7 8 7 7 6 6 6
6 8 7 8 8 9 10 9 9 9 8 8 7 7 8 8 9 9 9 9 9 8 8 7 7 6 6 6 5 5 5 6 3 3 5 3 7 7 7 7 6 6 6
5 6 6 7 7 7 7 8 8 8 6 6 6 5 5 7 8 9 9 9 8 8 7 6 5 5 5 4 4 3 4 4 4 4 3 4 8 7 7 7 6 7 6
5 5 5 5 6 7 6 7 6 6 5 4 3 4 3 2 4 5 8 8 8 7 6 5 4 3 3 2 2 3 2 2 3 3 3 6 8 7 7 7 7 6 6
4 4 4 5 5 5 5 5 3 3 3 2 2 3 2 3 3 6 7 7 6 5 4 3 2 1 1 1 2 3 2 3 3 3 4 8 8 8 7 7 6 6 6
4 3 4 4 5 5 3 3 2 2 1 2 3 3 3 3 2 3 2 3 2 3 1 1 1 0 1 1 2 2 3 3 3 4 5 9 9 8 7 7 6 6 5
5 4 4 4 4 5 4 2 2 2 2 2 2 3 3 2 2 2 2 2 2 1 1 1 1 2 3 4 4 4 4 3 3 3 4 10 10 9 8 8 7 6 7
6 4 4 4 4 4 4 1 3 3 2 3 2 2 3 2 2 2 2 2 2 2 2 2 2 3 4 5 4 5 4 4 5 4 3 9 9 10 9 9 8 7 8
5 5 5 3 3 4 3 2 3 3 3 2 1 2 3 2 2 2 3 3 2 2 2 2 3 3 3 3 4 4 4 4 4 5 4 5 9 9 9 9 8 9 9
5 6 5 3 4 4 4 3 3 2 3 2 2 2 3 3 3 3 3 2 2 2 3 3 3 3 3 3 4 4 4 4 4 4 4 3 4 7 9 9 9 9 9
5 7 6 4 3 4 4 3 2 3 3 3 2 2 3 3 4 4 2 2 3 3 2 2 2 2 3 3 3 3 3 3 4 4 4 4 3 4 6 9 10 9 9
4 5 7 5 4 4 3 3 3 3 3 3 2 2 3 3 4 3 2 2 3 3 2 3 3 3 3 3 2 2 3 3 3 4 4 4 4 4 3 6 9 9 9
3 3 6 6 4 4 2 2 3 3 3 2 2 2 3 2 3 3 1 3 3 3 3 3 3 3 2 2 3 4 3 3 3 3 3 3 3 4 4 4 3 5 8
4 3 5 6 5 3 2 2 2 2 2 2 2 3 2 2 3 3 2 3 2 2 2 3 2 2 2 2 3 3 2 3 3 3 3 3 3 3 3 3 2 2 3
4 3 5 5 5 4 2 2 2 2 2 2 1 2 2 3 3 2 2 2 2 2 3 2 2 2 1 1 1 2 1 2 3 2 2 2 2 2 2 3 3 3 3
4 3 3 5 5 5 4 2 2 2 2 2 1 1 2 3 2 2 2 2 2 2 2 1 1 2 1 1 1 1 2 1 1 1 2 2 2 2 2 2 3 3 4
4 2 3 4 4 5 4 3 3 2 1 1 2 2 1 2 2 2 2 2 2 2 2 1 2 1 1 0 1 1 1 2 2 1 2 1 1 2 1 2 2 3 4
4 3 2 4 4 4 3 3 2 2 1 1 2 2 1 1 2 2 2 1 1 1 1 2 2 1 1 1 0 0 2 1 1 2 1 1 1 1 1 1 2 2 3
5 3 3 3 3 3 3 3 3 2 2 2 2 2 1 1 1 1 1 0 1 1 1 1 1 1 0 0 0 0 1 1 1 1 1 1 0 1 0 1 1 2 3
Wind_Direction
77 80 66 53 46 44 44 46 46 44 44 50 56 58 58 57 56 60 59 71 68 61 63 66 68 66 63 62 57 50 56 80 99 97 95 94 93 88 81 81 89 85 87
84 85 72 59 53 50 50 49 49 49 50 55 60 62 62 60 55 58 65 73 74 69 67 64 62 64 64 61 60 54 59 80 91 96 96 91 91 91 84 79 83 85 91
86 90 75 60 57 54 52 52 54 57 56 58 62 63 62 60 54 54 65 73 80 80 75 69 66 68 67 61 61 59 58 61 65 68 78 92 89 89 91 84 84 83 85
85 81 73 63 60 58 57 56 56 61 59 62 64 64 63 60 55 55 68 77 85 87 83 76 71 71 70 67 61 58 51 42 35 39 61 68 74 85 91 87 84 82 82
87 86 80 69 64 61 62 63 61 61 61 63 63 64 64 63 58 61 72 78 83 85 81 76 75 76 71 66 59 53 43 33 35 41 65 66 66 87 94 89 85 82 81
97 95 92 81 74 70 70 69 66 65 66 65 65 68 66 65 62 64 74 77 79 80 79 77 79 77 74 66 51 38 29 31 30 56 74 76 82 92 95 89 85 81 80
103 104 104 97 90 83 79 74 72 71 70 68 69 71 70 70 73 71 74 76 76 76 74 75 76 76 73 65 48 30 24 30 52 63 74 73 78 87 90 89 86 83 79
105 109 112 113 105 96 88 81 76 75 77 76 75 73 74 75 76 76 75 77 77 76 75 74 73 71 67 62 49 33 17 24 55 65 76 77 83 84 85 86 85 80 76
108 118 126 130 121 111 101 96 90 87 86 87 86 80 82 85 87 86 82 78 77 77 79 80 81 78 68 60 51 37 29 34 34 53 73 72 82 81 81 79 83 84 81
107 109 121 130 131 128 120 113 110 106 104 104 106 101 96 99 99 95 89 84 83 83 81 80 83 83 72 64 52 40 34 29 53 60 62 75 77 77 77 76 76 79 79
107 113 118 119 125 127 128 126 132 129 134 133 136 140 129 112 104 99 94 97 92 86 82 82 84 88 80 65 29 15 36 66 71 67 60 77 79 77 76 77 77 77 76
107 104 114 124 124 114 112 128 146 131 144 160 119 121 122 91 81 94 103 108 106 102 95 87 83 86 65 47 28 32 54 65 67 70 62 72 76 76 76 78 81 78 74
101 93 102 105 107 108 100 105 97 98 111 105 92 91 83 88 105 108 126 132 128 128 96 95 87 77 93 84 76 76 68 63 66 64 58 66 71 72 74 78 78 74 72
108 95 91 95 100 104 104 105 113 105 79 63 56 80 80 67 75 85 88 86 79 72 55 41 44 36 47 52 56 59 67 71 79 81 68 65 65 64 67 73 71 75 72
111 114 98 90 95 101 103 127 109 99 89 82 57 70 87 78 66 72 81 71 76 72 58 38 35 44 48 39 44 54 60 67 81 84 79 71 66 64 64 67 70 78 76
128 125 109 110 104 108 111 98 90 101 103 87 65 86 94 91 84 64 65 62 59 61 74 57 57 57 55 58 51 45 53 63 80 88 97 78 70 68 68 68 70 79 78
134 120 107 106 98 96 94 78 84 83 90 85 59 55 83 88 87 75 66 67 62 53 61 51 51 64 70 65 62 51 49 48 62 71 88 94 82 72 72 69 70 77 76
134 129 129 126 115 105 96 90 84 87 82 78 55 34 48 63 82 76 67 66 68 57 59 61 58 72 75 70 61 56 54 54 54 58 65 78 83 81 73 72 72 73 76
121 132 136 124 115 103 105 122 89 91 88 83 75 45 42 47 74 81 67 67 75 62 49 50 52 80 89 91 85 77 65 58 54 60 61 68 78 86 85 78 74 71 77
119 130 128 118 119 116 109 106 97 84 81 81 80 69 50 47 67 78 68 69 66 63 57 59 58 67 87 87 77 70 68 71 64 53 57 60 68 81 84 83 77 69 72
137 132 124 131 129 118 112 106 109 102 102 86 78 79 56 58 68 72 69 70 71 72 69 72 76 71 68 88 83 68 58 64 76 67 60 58 60 71 80 83 83 78 74
128 136 137 129 127 124 123 115 122 122 115 103 81 81 66 59 60 68 78 87 84 83 72 71 79 60 36 44 84 97 71 31 29 64 71 63 62 63 70 79 74 81 82
130 145 131 130 133 134 127 110 96 81 73 88 102 89 68 69 55 55 72 87 97 106 112 109 83 84 89 360 32 88 113 125 30 13 53 67 63 52 47 65 74 79 84
133 140 134 128 128 124 125 125 131 140 145 151 138 130 119 110 104 80 74 72 79 91 101 101 86 97 101 83 351 2 85 125 126 69 3 30 61 62 63 69 73 83 88
122 115 105 107 112 113 125 133 140 142 165 148 127 120 131 122 110 94 90 94 113 111 123 94 79 57 108 112 117 23 50 58 105 126 119 347 12 20 65 87 87 90 93
116 114 101 99 101 118 149 155 169 162 159 144 142 144 142 116 94 81 76 85 113 101 98 111 129 128 113 75 192 114 123 130 132 105 139 161 40 305 41 99 101 105 102